FW0292 Weather Reports


Display with metric or nautical units.
time (UTC)temp
F
wind
direction
speed
MPH
gust
MPH
rain 1hr
in
rain 24hr
in
rain mn
in
humidity
%
barometer
mb
20260502130503 59 151 1.0 10.0 0.00 0.00 0.00 76 1016.2
20260502123503 60 205 0.0 2.0 0.00 0.00 0.00 73 1015.7
20260502123003 60 204 0.0 2.0 0.00 0.00 0.00 73 1015.5
20260502122503 61 202 0.0 2.0 0.00 0.00 0.00 73 1015.6
20260502122003 61 75 0.0 1.0 0.00 0.00 0.00 73 1015.8
20260502121503 61 75 1.0 3.0 0.00 0.00 0.00 73 1015.9
20260502121003 61 84 1.0 3.0 0.00 0.00 0.00 73 1016.0
20260502120524 62 95 1.0 3.0 0.00 0.00 0.00 73 1016.2
20260502115503 62 112 1.0 4.0 0.00 0.00 0.00 72 1016.3
20260502115003 63 120 1.0 3.0 0.00 0.00 0.00 72 1016.4
20260502114503 63 110 1.0 3.0 0.00 0.00 0.00 72 1016.4
20260502114003 63 103 1.0 3.0 0.00 0.00 0.00 72 1016.3
20260502113503 63 106 2.0 6.0 0.00 0.00 0.00 72 1016.4
20260502113003 63 110 2.0 6.0 0.00 0.00 0.00 72 1016.6
20260502112524 64 105 1.0 4.0 0.00 0.00 0.00 73 1016.6
20260502112003 64 93 1.0 4.0 0.00 0.00 0.00 73 1016.7
20260502111503 64 100 2.0 4.0 0.00 0.00 0.00 73 1016.9
20260502111003 64 113 1.0 4.0 0.00 0.00 0.00 73 1016.9
20260502110503 63 114 1.0 3.0 0.00 0.00 0.00 73 1016.9
20260502110003 63 104 1.0 4.0 0.00 0.00 0.00 73 1016.9
20260502105503 63 103 2.0 6.0 0.00 0.00 0.00 74 1017.0
20260502105003 63 103 1.0 6.0 0.00 0.00 0.00 75 1017.0
20260502104524 63 93 1.0 3.0 0.00 0.00 0.00 75 1017.2
20260502104003 62 94 1.0 3.0 0.00 0.00 0.00 76 1017.3
20260502103503 62 102 1.0 4.0 0.00 0.00 0.00 76 1017.2
20260502103003 62 96 2.0 4.0 0.00 0.00 0.00 77 1017.3
20260502102503 62 79 2.0 4.0 0.00 0.00 0.00 77 1017.3
20260502102003 62 76 2.0 4.0 0.00 0.00 0.00 77 1017.4
20260502101503 62 88 2.0 4.0 0.00 0.00 0.00 77 1017.4
20260502101003 62 99 2.0 3.0 0.00 0.00 0.00 77 1017.6
20260502100524 61 106 1.0 3.0 0.00 0.00 0.00 77 1017.6
20260502091501 60 107 3.0 7.0 0.00 0.00 0.00 84 1018.1
20260502091001 60 104 3.0 7.0 0.00 0.00 0.00 84 1018.3
20260502090501 59 113 2.0 7.0 0.00 0.00 0.00 85 1018.3
20260502071501 52 353 2.0 5.0 0.00 0.00 0.00 88 1019.3
20260502071001 51 359 2.0 5.0 0.00 0.00 0.00 88 1019.2
20260502070523 51 7 2.0 4.0 0.00 0.00 0.00 88 1019.1
20260502070002 50 7 2.0 5.0 0.00 0.00 0.00 88 1019.2
20260502065502 50 6 2.0 5.0 0.00 0.00 0.00 88 1019.3
20260502065001 50 5 2.0 5.0 0.00 0.00 0.00 88 1019.4
20260502064502 50 5 2.0 5.0 0.00 0.00 0.00 88 1019.4
20260502064001 50 6 2.0 5.0 0.00 0.00 0.00 88 1019.4
20260502063501 49 10 2.0 4.0 0.00 0.00 0.00 88 1019.4
20260502063001 49 17 1.0 5.0 0.00 0.00 0.00 88 1019.3
20260502062522 49 10 2.0 5.0 0.00 0.00 0.00 88 1019.4
20260502062001 49 359 1.0 4.0 0.00 0.00 0.00 87 1019.4
20260502061502 48 352 1.0 4.0 0.00 0.00 0.00 87 1019.3
20260502061001 48 345 0.0 3.0 0.00 0.00 0.00 87 1019.1
20260502060501 48 342 1.0 3.0 0.00 0.00 0.00 87 1018.9
20260502060001 48 342 1.0 3.0 0.00 0.00 0.00 87 1018.9
20260502055501 48 351 1.0 4.0 0.00 0.00 0.00 87 1018.7
20260502055001 48 6 0.0 4.0 0.00 0.00 0.00 87 1018.9
20260502054501 48 0 0.0 0.0 0.00 0.00 0.00 87 1019.1
20260502054001 48 0 0.0 0.0 0.00 0.00 0.00 87 1019.2
20260502053501 48 5 0.0 1.0 0.00 0.00 0.00 87 1019.2
20260502053002 48 5 0.0 1.0 0.00 0.00 0.00 87 1019.3
20260502052501 48 5 0.0 1.0 0.00 0.00 0.00 87 1019.4
20260502052002 48 5 0.0 2.0 0.00 0.00 0.00 87 1019.4
20260502051501 48 5 1.0 3.0 0.00 0.00 0.00 87 1019.4
20260502051001 48 5 1.0 3.0 0.00 0.00 0.00 87 1019.4
20260502050501 48 1 1.0 4.0 0.00 0.00 0.00 87 1019.3
20260502050022 48 13 1.0 4.0 0.00 0.00 0.00 87 1019.3
20260502045501 48 19 1.0 3.0 0.00 0.00 0.00 87 1019.3
20260502045001 48 4 0.0 3.0 0.00 0.00 0.00 86 1019.2
20260502044501 48 0 0.0 0.0 0.00 0.00 0.00 86 1019.3
20260502044001 48 0 0.0 0.0 0.00 0.00 0.00 86 1019.3
20260502043501 48 0 0.0 0.0 0.00 0.00 0.00 86 1019.2
20260502043001 48 0 0.0 0.0 0.00 0.00 0.00 86 1019.3
20260502042501 49 0 0.0 0.0 0.00 0.00 0.00 86 1019.2
20260502042001 49 0 0.0 0.0 0.00 0.00 0.00 86 1019.2
20260502041502 49 0 0.0 0.0 0.00 0.00 0.00 86 1019.3
20260502041023 49 0 0.0 0.0 0.00 0.00 0.00 86 1019.2
20260502040501 49 0 0.0 0.0 0.00 0.00 0.00 86 1019.2
20260502040023 49 0 0.0 0.0 0.00 0.00 0.00 86 1019.3
20260502035502 50 0 0.0 0.0 0.00 0.00 0.00 86 1019.3
20260502035022 50 0 0.0 0.0 0.00 0.00 0.00 86 1019.2
20260502034522 50 0 0.0 0.0 0.00 0.00 0.00 86 1019.2
20260502034001 50 0 0.0 0.0 0.00 0.00 0.00 86 1019.2
20260502033501 50 0 0.0 0.0 0.00 0.00 0.00 86 1019.4
20260502033001 50 0 0.0 0.0 0.00 0.00 0.00 86 1019.4
20260502032501 50 345 1.0 5.0 0.00 0.00 0.00 86 1019.5
20260502032001 50 344 2.0 5.0 0.00 0.00 0.00 86 1019.4
20260502031501 50 343 2.0 5.0 0.00 0.00 0.00 86 1019.6
20260502031002 50 344 2.0 6.0 0.00 0.00 0.00 86 1019.5
20260502030502 51 348 3.0 6.0 0.00 0.00 0.00 86 1019.5
20260502030002 51 350 3.0 6.0 0.00 0.00 0.00 86 1019.5
20260502025502 51 347 3.0 6.0 0.00 0.00 0.00 86 1019.6
20260502025023 51 344 3.0 6.0 0.00 0.00 0.00 86 1019.5
20260502024502 51 345 3.0 6.0 0.00 0.00 0.00 86 1019.5
20260502024022 51 353 2.0 5.0 0.00 0.00 0.00 86 1019.6
20260502023501 51 350 2.0 4.0 0.00 0.00 0.00 86 1019.7
20260502023001 51 327 1.0 3.0 0.00 0.00 0.00 86 1019.9
20260502022502 51 325 1.0 3.0 0.00 0.00 0.00 86 1020.0
20260502022002 51 328 0.0 2.0 0.00 0.00 0.00 86 1020.1
20260502021502 51 335 1.0 4.0 0.00 0.00 0.00 86 1020.2
20260502021001 51 334 3.0 4.0 0.00 0.00 0.00 86 1020.2
20260502020501 51 341 2.0 4.0 0.00 0.00 0.00 86 1020.2
20260502020022 51 353 1.0 4.0 0.00 0.00 0.00 85 1020.3
20260502015501 51 0 0.0 0.0 0.00 0.00 0.00 85 1020.3
20260502015002 50 0 0.0 0.0 0.00 0.00 0.00 85 1020.4
20260502014502 50 0 0.0 0.0 0.00 0.00 0.00 85 1020.4
20260502014002 51 0 0.0 0.0 0.00 0.00 0.00 85 1020.3
20260502013523 51 0 0.0 0.0 0.00 0.00 0.00 85 1020.4
20260502013002 51 0 0.0 0.0 0.00 0.00 0.00 85 1020.5
20260502012523 51 0 0.0 0.0 0.00 0.00 0.00 85 1020.5
20260502012001 51 0 0.0 0.0 0.00 0.00 0.00 84 1020.5
20260502011502 51 0 0.0 0.0 0.00 0.00 0.00 85 1020.5
20260502011002 51 0 0.0 0.0 0.00 0.00 0.00 85 1020.4
20260502010522 51 182 0.0 1.0 0.00 0.00 0.00 84 1020.4
20260502010001 52 182 0.0 1.0 0.00 0.00 0.00 85 1020.5
20260502005502 52 182 0.0 1.0 0.00 0.00 0.00 85 1020.6
20260502005002 52 182 0.0 1.0 0.00 0.00 0.00 85 1020.5
20260502004502 52 182 0.0 1.0 0.00 0.00 0.00 85 1020.4
20260502004002 52 0 0.0 0.0 0.00 0.00 0.00 85 1020.4
20260502003502 53 0 0.0 0.0 0.00 0.00 0.00 85 1020.5
20260502003002 53 0 0.0 0.0 0.00 0.00 0.00 85 1020.5
20260502002502 53 0 0.0 0.0 0.00 0.00 0.00 85 1020.5
20260502002002 53 0 0.0 0.0 0.00 0.00 0.00 85 1020.7
20260502001523 53 0 0.0 0.0 0.00 0.00 0.00 85 1020.8
20260502001002 54 0 0.0 0.0 0.00 0.00 0.00 85 1020.8
20260502000501 54 0 0.0 0.0 0.00 0.00 0.00 85 1020.8
20260502000001 54 181 0.0 1.0 0.00 0.00 0.00 85 1020.8
20260501235523 54 181 0.0 1.0 0.00 0.00 0.00 85 1020.9
20260501235002 54 181 0.0 2.0 0.00 0.00 0.00 85 1020.8
20260501234502 54 181 1.0 3.0 0.00 0.00 0.00 85 1020.8
20260501234002 54 182 0.0 3.0 0.00 0.00 0.00 85 1021.0
20260501233502 54 181 0.0 3.0 0.00 0.00 0.00 85 1020.9
20260501233002 54 181 0.0 3.0 0.00 0.00 0.00 85 1021.0
20260501232502 54 178 0.0 2.0 0.00 0.00 0.00 85 1021.0
20260501232002 54 178 0.0 2.0 0.00 0.00 0.00 85 1021.1
20260501231502 54 172 1.0 4.0 0.00 0.00 0.00 85 1021.1
20260501231002 54 160 2.0 4.0 0.00 0.00 0.00 85 1021.1
20260501230501 54 161 1.0 4.0 0.00 0.00 0.00 85 1021.1
20260501230002 54 176 2.0 4.0 0.00 0.00 0.00 85 1021.2
20260501225502 54 187 2.0 5.0 0.00 0.00 0.00 85 1021.2
20260501225002 54 205 2.0 5.0 0.00 0.00 0.00 85 1021.1
20260501224502 54 218 2.0 5.0 0.00 0.00 0.00 85 1021.1
20260501224023 54 229 3.0 6.0 0.00 0.00 0.00 85 1021.1
20260501223502 54 225 2.0 6.0 0.00 0.00 0.00 85 1021.2
20260501223002 54 219 2.0 5.0 0.00 0.00 0.00 86 1021.1
20260501222502 54 230 1.0 4.0 0.00 0.00 0.00 86 1021.2
20260501222023 54 210 2.0 5.0 0.00 0.00 0.00 85 1021.3
20260501221502 54 202 2.0 5.0 0.00 0.00 0.00 85 1021.4
20260501221002 54 217 2.0 4.0 0.00 0.00 0.00 85 1021.4
20260501220502 54 221 2.0 8.0 0.00 0.00 0.00 85 1021.4
20260501220002 54 214 3.0 8.0 0.00 0.00 0.00 85 1021.3
20260501215502 54 217 3.0 7.0 0.00 0.00 0.00 85 1021.4
20260501215002 54 226 3.0 7.0 0.00 0.00 0.00 85 1021.4
20260501214502 54 225 3.0 6.0 0.00 0.00 0.00 85 1021.4
20260501214002 54 214 3.0 7.0 0.00 0.00 0.00 85 1021.4
20260501213501 54 208 3.0 7.0 0.00 0.00 0.00 85 1021.4
20260501213002 54 214 2.0 6.0 0.00 0.00 0.00 85 1021.4
20260501212502 54 220 2.0 5.0 0.00 0.00 0.00 85 1021.4
20260501212002 54 230 2.0 4.0 0.00 0.00 0.00 85 1021.5
20260501211523 54 243 2.0 4.0 0.00 0.00 0.00 85 1021.4
20260501211002 54 240 3.0 7.0 0.00 0.00 0.00 84 1021.4
20260501210502 54 230 3.0 7.0 0.00 0.00 0.00 84 1021.3
20260501210002 54 212 2.0 5.0 0.00 0.00 0.00 84 1021.3
20260501205523 54 193 2.0 6.0 0.00 0.00 0.00 84 1021.4
20260501205001 54 204 2.0 6.0 0.00 0.00 0.00 84 1021.4
20260501204502 54 209 2.0 5.0 0.00 0.00 0.00 84 1021.3
20260501204002 54 197 2.0 5.0 0.00 0.00 0.00 84 1021.4
20260501203502 54 207 1.0 4.0 0.00 0.00 0.00 84 1021.4
20260501203002 54 216 1.0 4.0 0.00 0.00 0.00 84 1021.4
20260501202523 54 213 1.0 4.0 0.00 0.00 0.00 83 1021.4
20260501202023 54 209 1.0 3.0 0.00 0.00 0.00 83 1021.3
20260501201502 54 208 2.0 4.0 0.00 0.00 0.00 83 1021.3
20260501201002 54 209 2.0 4.0 0.00 0.00 0.00 83 1021.3
20260501200502 54 215 1.0 4.0 0.00 0.00 0.00 82 1021.3
20260501200002 54 228 2.0 4.0 0.00 0.00 0.00 82 1021.2
20260501195502 54 233 1.0 4.0 0.00 0.00 0.00 82 1021.3
20260501195002 54 227 1.0 5.0 0.00 0.00 0.00 82 1021.2
20260501194502 55 219 2.0 5.0 0.00 0.00 0.00 82 1021.2
20260501194002 55 225 2.0 4.0 0.00 0.00 0.00 82 1021.3
20260501193502 55 231 2.0 5.0 0.00 0.00 0.00 81 1021.3
20260501193002 55 222 2.0 5.0 0.00 0.00 0.00 81 1021.2
20260501192502 55 216 2.0 5.0 0.00 0.00 0.00 81 1021.2
20260501192002 55 217 2.0 5.0 0.00 0.00 0.00 81 1021.2
20260501191502 55 218 3.0 5.0 0.00 0.00 0.00 80 1021.1
20260501191002 56 231 2.0 5.0 0.00 0.00 0.00 80 1021.1
20260501190502 56 244 2.0 4.0 0.00 0.00 0.00 80 1021.1
20260501190023 56 222 2.0 5.0 0.00 0.00 0.00 80 1021.0
20260501185502 56 222 2.0 6.0 0.00 0.00 0.00 80 1021.1
20260501185002 56 227 3.0 8.0 0.00 0.00 0.00 79 1021.1
20260501184502 56 224 3.0 8.0 0.00 0.00 0.00 79 1021.1
20260501184002 56 218 2.0 6.0 0.00 0.00 0.00 79 1021.0
20260501183502 56 208 2.0 6.0 0.00 0.00 0.00 78 1021.0
20260501183002 56 207 3.0 8.0 0.00 0.00 0.00 78 1021.1
20260501182502 57 209 4.0 8.0 0.00 0.00 0.00 77 1021.1
20260501182002 57 204 4.0 8.0 0.00 0.00 0.00 77 1021.1
20260501181502 57 201 4.0 9.0 0.00 0.00 0.00 76 1021.2
20260501181002 57 203 4.0 9.0 0.00 0.00 0.00 76 1021.2
20260501180502 58 205 4.0 9.0 0.00 0.00 0.00 75 1021.1
20260501180002 58 207 4.0 9.0 0.00 0.00 0.00 75 1021.1
20260501175502 58 208 3.0 9.0 0.00 0.00 0.00 74 1021.1
20260501175002 58 205 4.0 10.0 0.00 0.00 0.00 74 1021.1
20260501174502 59 211 5.0 12.0 0.00 0.00 0.00 73 1021.1
20260501174002 59 220 5.0 12.0 0.00 0.00 0.00 73 1021.0
20260501173502 59 221 4.0 9.0 0.00 0.00 0.00 73 1021.0
20260501173002 60 211 4.0 9.0 0.00 0.00 0.00 73 1021.1
20260501172002 61 201 4.0 10.0 0.00 0.00 0.00 72 1021.1
20260501171502 61 201 4.0 10.0 0.00 0.00 0.00 72 1021.1
20260501171023 61 201 4.0 9.0 0.00 0.00 0.00 72 1021.1
20260501170523 62 210 4.0 9.0 0.00 0.00 0.00 71 1021.0
20260501170002 62 211 4.0 9.0 0.00 0.00 0.00 71 1021.1
20260501165523 62 195 5.0 11.0 0.00 0.00 0.00 70 1021.1
20260501165002 63 198 5.0 11.0 0.00 0.00 0.00 69 1021.2
20260501164502 64 203 4.0 10.0 0.00 0.00 0.00 68 1021.2
20260501164002 64 204 5.0 10.0 0.00 0.00 0.00 68 1021.2
20260501163502 65 208 5.0 10.0 0.00 0.00 0.00 68 1021.2
20260501163002 65 203 4.0 11.0 0.00 0.00 0.00 69 1021.2
20260501162502 64 197 4.0 11.0 0.00 0.00 0.00 70 1021.2
20260501162002 64 198 5.0 10.0 0.00 0.00 0.00 69 1021.1
20260501161502 64 205 4.0 8.0 0.00 0.00 0.00 69 1021.2
20260501161023 65 208 4.0 8.0 0.00 0.00 0.00 68 1021.2
20260501160502 65 203 4.0 9.0 0.00 0.00 0.00 68 1021.3
20260501160002 65 192 5.0 9.0 0.00 0.00 0.00 69 1021.3
20260501155502 65 189 5.0 11.0 0.00 0.00 0.00 69 1021.3
20260501154002 65 192 5.0 11.0 0.00 0.00 0.00 69 1021.3
20260501153523 65 194 5.0 11.0 0.00 0.00 0.00 68 1021.4
20260501153002 65 207 4.0 11.0 0.00 0.00 0.00 69 1021.4
20260501152502 65 209 4.0 11.0 0.00 0.00 0.00 69 1021.4
20260501152002 65 214 4.0 9.0 0.00 0.00 0.00 68 1021.4
20260501151502 65 207 4.0 9.0 0.00 0.00 0.00 69 1021.5
20260501151002 65 198 5.0 11.0 0.00 0.00 0.00 68 1021.4
20260501150502 65 213 5.0 11.0 0.00 0.00 0.00 69 1021.5
20260501150002 65 219 4.0 9.0 0.00 0.00 0.00 70 1021.6
20260501145502 64 207 5.0 11.0 0.00 0.00 0.00 70 1021.5